User: anonymous   Login
Location: Rohlstorf
(53.9174°N, 11.5263°E)
Time: 21:38:55
(UTC+02:00)
Language:

ISS - Orbit

View from above orbital plane
View from above orbital plane
View from above satellite
View from above satellite

Ground track
Ground track

The orbit data is extracted from the following two-line orbital elements,

1 25544U 98067A   22221.57604654  .00011001  00000-0  19835-3 0  9998
2 25544  51.6434  72.1103 0005051  94.7546 308.5806 15.50298045353465
Epoch (UTC): 09 August 2022 13:49:30
Eccentricity: 0.0005051
inclination: 51.6434°
perigee height: 412 km
apogee height: 419 km
right ascension of ascending node: 72.1103°
argument of perigee: 94.7546°
revolutions per day: 15.50298045
mean anomaly at epoch: 308.5806°
orbit number at epoch: 35346

The dashed part of the orbit path shows where the satellite is in the earth's shadow,  

DLR